Tracking 22993 objects as of 9-May-2021
HD Live streaming from Space Station
objects crossing your sky now

COSMOS 397 DEB

Track COSMOS 397 DEB now!
10-day predictions


NORAD ID: 5018
Int'l Code: 1971-015M
Perigee: 569.9 km
Apogee: 2,130.5 km
Inclination: 65.7 °
Period: 112.5 minutes
Semi major axis: 7721 km
RCS: 0.1181 m2 (medium)
Launch date: February 25, 1971
Source: Commonwealth of Independent States (former USSR) (CIS)
Launch site: TYURATAM MISSILE AND SPACE COMPLEX (TTMTR)

Note: This is SATELLITE DEBRIS
aabbcc
Your satellite tracking list
Your tracking list is empty




NASA's NSSDC Master Catalog

Two Line Element Set (TLE):
1 05018U 71015M   21129.46942213 -.00000027  00000-0  24747-4 0  9992
2 05018  65.7106 158.2866 1010617 241.8751 107.6587 12.79610574340431
Source of the keplerian elements: AFSPC